EUTELSAT 10B

Last updated on Sat Aug 15 2026 00:03:03 GMT+0000 (Coordinated Universal Time)

1 54259U 22157A 26226.56996274 .00000053 00000+0 00000+0 0 9994 2 54259 0.0583 98.7828 0001341 344.7552 94.6618 1.00271914 13614
UTC large
Height (km)
Speed (km/s)
/
Latitude / Longitude
Inclination (degrees)
Orbital Period (minutes)
Azimuth
Elevation
Range (km)
Doppler Factor

Next 0 passes for location: London (51.5072 / 0.1276)

No passes found over London.
EUTELSAT 10B